Le nostre stazioni meteo in Italia

Pubblicità
Il mio iltempo24.it
Otranto, Italia (16334): Temperatura & dewpoint: 13.04.2019 17:00:00 - 19.04.2019 17:00:00 (CEST)Otranto, Italia (16334): velocità del vento: 13.04.2019 17:00:00 - 19.04.2019 17:00:00 (CEST)Otranto, Italia (16334): direzione del vento: 13.04.2019 17:00:00 - 19.04.2019 17:00:00 (CEST)Otranto, Italia (16334): reduced air pressure: 13.04.2019 17:00:00 - 19.04.2019 17:00:00 (CEST)
Data & Tempo tt [°C] td [°C] ff [km/h] ff [kn] dd ppp [hPa]
19.04.2019 17:00:00 - - - - - -
19.04.2019 16:00:00 17,6 15,5 15 8 N 1024,7
19.04.2019 15:00:00 18,0 17,1 15 8 N 1025,2
19.04.2019 14:00:00 18,3 16,4 9 5 N 1025,3
19.04.2019 13:00:00 17,5 17,4 9 5 NE 1025,6
19.04.2019 12:00:00 17,5 17,4 9 5 E 1025,8
19.04.2019 11:00:00 17,3 17,2 8 4 NE 1025,8
19.04.2019 10:00:00 17,2 17,1 9 5 ENE 1025,3
19.04.2019 09:00:00 16,0 15,9 5 3 ENE 1024,8
19.04.2019 08:00:00 13,9 13,8 5 3 NNO 1024,7
19.04.2019 07:00:00 11,5 11,5 5 3 NO 1024,4
19.04.2019 06:00:00 11,8 11,8 8 4 NNO 1023,9
19.04.2019 05:00:00 12,2 12,2 11 6 NNO 1023,6
19.04.2019 04:00:00 12,2 12,2 11 6 NO 1023,6
19.04.2019 03:00:00 12,1 12,1 11 6 NNO 1023,4
19.04.2019 02:00:00 12,2 12,2 11 6 NNO 1023,5
19.04.2019 01:00:00 12,1 12,1 11 6 NNO 1023,7
19.04.2019 00:00:00 12,3 12,3 13 7 NNO 1023,6
18.04.2019 23:00:00 11,8 11,8 9 5 NNO 1023,7
18.04.2019 22:00:00 13,0 12,9 11 6 NNO 1023,2
18.04.2019 21:00:00 13,4 13,3 13 7 NNO 1022,6
18.04.2019 20:00:00 14,0 13,0 11 6 NNO 1022,1
18.04.2019 19:00:00 15,6 14,1 16 9 NNO 1021,2
18.04.2019 18:00:00 - - - - - -
18.04.2019 17:00:00 16,6 15,4 18 10 N 1020,8
18.04.2019 16:00:00 17,0 16,8 21 11 N 1020,2
18.04.2019 15:00:00 17,2 17,1 18 10 NO 1020,2
18.04.2019 14:00:00 16,6 16,5 22 12 N 1020,6
18.04.2019 13:00:00 16,7 16,6 22 12 N 1020,4
18.04.2019 12:00:00 16,6 16,5 21 11 N 1020,6
18.04.2019 11:00:00 16,4 16,3 21 11 N 1020,7
18.04.2019 10:00:00 15,5 15,4 16 9 N 1020,4
18.04.2019 09:00:00 14,8 14,7 16 9 NNO 1020,1
18.04.2019 08:00:00 12,7 12,7 15 8 NNO 1019,8
18.04.2019 07:00:00 11,5 11,5 15 8 NNO 1019,5
18.04.2019 06:00:00 10,5 10,5 13 7 NNO 1019,2
18.04.2019 05:00:00 10,8 10,8 13 7 NNO 1018,9
18.04.2019 04:00:00 10,7 10,7 13 7 NNO 1019,2
18.04.2019 03:00:00 11,0 11,0 15 8 NO 1018,9
18.04.2019 02:00:00 11,3 11,3 13 7 NNO 1019,3
18.04.2019 01:00:00 11,1 11,1 11 6 NO 1019,4
18.04.2019 00:00:00 11,1 11,1 9 5 NNO 1019,7
17.04.2019 23:00:00 11,5 11,5 11 6 NNO 1019,7
17.04.2019 22:00:00 12,4 12,4 11 6 N 1019,6
17.04.2019 21:00:00 12,5 12,5 11 6 N 1019,1
17.04.2019 20:00:00 13,4 12,8 11 6 N 1018,2
17.04.2019 19:00:00 15,1 14,1 11 6 N 1017,6
17.04.2019 18:00:00 - - - - - -
17.04.2019 17:00:00 16,6 15,4 16 9 NNE 1017,5
17.04.2019 16:00:00 16,8 15,3 18 10 N 1017,7
17.04.2019 15:00:00 16,6 15,4 18 10 N 1018,0
17.04.2019 14:00:00 17,1 16,2 16 9 N 1018,4
17.04.2019 13:00:00 16,8 16,6 15 8 N 1018,7
17.04.2019 12:00:00 16,5 16,4 15 8 N 1018,9
17.04.2019 11:00:00 16,2 16,1 11 6 NNO 1018,9
17.04.2019 10:00:00 15,6 15,5 13 7 N 1018,6
17.04.2019 09:00:00 14,2 14,1 11 6 N 1018,3
17.04.2019 08:00:00 13,4 13,3 4 2 NNO 1017,9
17.04.2019 07:00:00 12,3 12,3 8 4 N 1017,9
17.04.2019 06:00:00 12,5 12,5 8 4 N 1017,5
17.04.2019 05:00:00 12,3 12,3 9 5 N 1017,7
17.04.2019 04:00:00 10,9 10,9 8 4 NNO 1018,0
17.04.2019 03:00:00 12,3 12,3 8 4 N 1018,2
17.04.2019 02:00:00 11,6 11,6 8 4 NNO 1018,5
17.04.2019 01:00:00 - - - - - -
17.04.2019 00:00:00 - - - - - -
16.04.2019 23:00:00 12,3 12,3 5 3 ONO 1019,1
16.04.2019 22:00:00 - - - - - -
16.04.2019 21:00:00 12,8 12,8 5 3 O 1018,6
16.04.2019 20:00:00 14,1 14,0 8 4 N 1017,9
16.04.2019 19:00:00 - - - - - -
16.04.2019 18:00:00 15,2 15,1 13 7 N 1017,7
16.04.2019 17:00:00 16,8 16,7 15 8 NNE 1017,4
16.04.2019 16:00:00 17,0 16,9 15 8 N 1017,4
16.04.2019 15:00:00 17,0 16,9 21 11 NNE 1017,6
16.04.2019 14:00:00 16,8 16,7 18 10 N 1018,1
16.04.2019 13:00:00 16,7 16,6 21 11 N 1017,9
16.04.2019 12:00:00 16,6 16,5 21 11 NNE 1017,9
16.04.2019 11:00:00 16,5 16,4 15 8 NNO 1017,9
16.04.2019 10:00:00 16,0 15,9 18 10 N 1017,7
16.04.2019 09:00:00 14,4 14,3 15 8 NNO 1017,6
16.04.2019 08:00:00 12,1 12,1 13 7 NO 1017,4
16.04.2019 07:00:00 11,1 11,1 13 7 NO 1016,7
16.04.2019 06:00:00 11,3 11,3 15 8 NNO 1016,1
16.04.2019 05:00:00 11,4 11,4 13 7 NNO 1016,1
16.04.2019 04:00:00 11,6 11,6 13 7 NNO 1016,1
16.04.2019 03:00:00 10,7 10,7 11 6 NO 1015,9
16.04.2019 02:00:00 10,9 10,9 9 5 NNO 1015,9
16.04.2019 01:00:00 11,2 11,2 8 4 NNO 1016,1
16.04.2019 00:00:00 11,7 11,7 11 6 NNO 1016,0
15.04.2019 23:00:00 12,5 12,5 9 5 NNO 1015,6
15.04.2019 22:00:00 13,3 13,2 5 3 N 1015,4
15.04.2019 21:00:00 13,3 13,2 8 4 NNE 1014,9
15.04.2019 20:00:00 13,6 13,5 11 6 NNE 1013,8
15.04.2019 19:00:00 14,0 13,9 13 7 N 1013,0
15.04.2019 18:00:00 14,1 13,1 15 8 NNE 1012,7
15.04.2019 17:00:00 13,9 12,9 13 7 N 1012,2
15.04.2019 16:00:00 14,5 13,5 8 4 E 1011,7
15.04.2019 15:00:00 14,8 14,7 8 4 E 1011,2
15.04.2019 14:00:00 13,3 12,3 8 4 E 1011,4
15.04.2019 13:00:00 13,7 13,5 5 3 ENE 1011,2
15.04.2019 12:00:00 14,2 14,1 5 3 ENE 1011,2
15.04.2019 11:00:00 13,4 13,3 8 4 NE 1011,2
15.04.2019 10:00:00 13,0 12,9 2 1 NE 1011,1
15.04.2019 09:00:00 11,9 11,9 4 2 NE 1010,8
15.04.2019 08:00:00 11,0 11,0 4 2 NNE 1010,2
15.04.2019 07:00:00 10,1 10,1 5 3 NE 1009,6
15.04.2019 06:00:00 9,9 9,9 5 3 OSO 1010,6
15.04.2019 05:00:00 11,2 11,2 13 7 O 1010,0
15.04.2019 04:00:00 12,6 12,6 8 4 ESE 1009,6
15.04.2019 03:00:00 13,0 12,9 9 5 ESE 1009,7
15.04.2019 02:00:00 12,8 12,8 5 3 E 1010,4
15.04.2019 01:00:00 12,6 12,6 4 2 ESE 1011,0
15.04.2019 00:00:00 12,6 12,6 4 2 E 1011,3
14.04.2019 23:00:00 12,1 12,1 2 1 SO 1011,4
14.04.2019 22:00:00 12,1 12,1 5 3 O 1011,4
14.04.2019 21:00:00 12,0 12,0 2 1 O 1011,3
14.04.2019 20:00:00 12,2 12,2 2 1 N 1011,1
14.04.2019 19:00:00 14,1 14,0 5 3 NNO 1010,8
14.04.2019 18:00:00 14,6 14,5 9 5 ESE 1010,3
14.04.2019 17:00:00 14,4 14,3 5 3 SSE 1010,3
14.04.2019 16:00:00 15,3 14,3 8 4 S 1010,4
14.04.2019 15:00:00 14,8 14,7 2 1 ENE 1010,7
14.04.2019 14:00:00 13,7 13,6 8 4 NNO 1011,2
14.04.2019 13:00:00 15,1 15,0 8 4 ESE 1010,8
14.04.2019 12:00:00 14,1 14,0 8 4 NNE 1011,2
14.04.2019 11:00:00 14,2 14,1 11 6 N 1011,0
14.04.2019 10:00:00 14,0 13,9 13 7 NO 1010,7
14.04.2019 09:00:00 12,5 12,5 11 6 NNO 1010,5
14.04.2019 08:00:00 11,9 11,9 11 6 NO 1010,2
14.04.2019 07:00:00 10,9 10,9 11 6 NO 1009,9
14.04.2019 06:00:00 10,8 10,8 9 5 NO 1009,7
14.04.2019 05:00:00 10,7 10,7 9 5 NO 1009,6
14.04.2019 04:00:00 10,3 10,3 9 5 NO 1009,9
14.04.2019 03:00:00 10,1 10,1 11 6 NO 1010,0
14.04.2019 02:00:00 10,1 10,1 9 5 NO 1010,2
14.04.2019 01:00:00 10,3 10,3 8 4 ONO 1010,6
14.04.2019 00:00:00 10,6 10,6 8 4 NNO 1010,8
13.04.2019 23:00:00 11,0 11,0 8 4 NO 1010,7
13.04.2019 22:00:00 11,6 11,6 8 4 NNO 1010,8
13.04.2019 21:00:00 12,8 12,8 5 3 NO 1011,0
13.04.2019 20:00:00 13,0 12,9 4 2 OSO 1010,4
13.04.2019 19:00:00 13,8 13,7 4 2 SO 1009,9
13.04.2019 18:00:00 14,3 14,2 4 2 S 1009,6
13.04.2019 17:00:00 14,0 13,9 9 5 SE 1009,6

tt = Temperatura
td = dewpoint
ff = velocità del vento
dd = direzione del vento
ppp = reduced air pressure

Stazioni seguenti

WeatherPro
AMSI
MeteoEarth